Location: Carrizalito
(10.3833°N, 67.0217°W)
Time: 04:13:44
(UTC+00:00)

Meteor 1-11 Rocket - Pass Details

Date: 07 July 2022
Orbit: 830 x 916 km, 81.2° (Epoch: 13 August)

Event Time Altitude Azimuth Distance (km) Brightness Sun altitude
Exits shadow 07:11:01 19° 102° (ESE) 2,029 5.9 -39.2°
Maximum altitude 07:11:44 19° 92° (E) 2,008 6.0 -39.0°
Drops below altitude 10° 07:15:49 10° 48° (NE) 2,594 6.9 -38.3°
Sets 07:18:57 0° 32° (NNE) 3,527 7.8 -37.7°
